Forside
METAR-TAF:

METAR-TAF

Lufthavne :

Oscoda-Wurtsmith Airport

Oscoda, Michigan, USA

Breddekreds: 44-27N, længdekreds: 083-22W, højde: 193 m

Aktuelle vejr

Denne rapport blev lavet for 15 minutter siden, kl. 01:55 UTC
Vind 4 kt fra nord
Temperatur 16°C
Fugtighed 100%
Tryk 1013 hPa
Sigt: 11.3 km
skyfri

METAR: KOSC 250155Z AUTO 35004KT 7SM CLR 16/16 A2991 RMK AO2 T01600157

Tid: 22:10 (02:10 UTC)


TAF: fraværende

Vejrobservationer og prognoser fra mere end 4000 lufthavne (METAR og TAF).

De gule og røde prikker repræsenterer de meteorologiske stationer.

Flyt musen over at se navnet på stationen.

Så klik over at se vejr observationer og prognoser.

At skifte det kort: Klik på de grønne knapper med et sort kors for at zoome ind; på den grønne knap med en bindestreg for at zoome ud; eller på de grønne pile for tilstødende kort.


METAR-TAF: